TIANMU-1 08

Last updated on Wed Sep 17 2025 00:02:23 GMT+0000 (Coordinated Universal Time)

1 57400U 23101B 25259.61238764 .00007002 00000+0 27278-3 0 9990 2 57400 97.3010 311.2385 0006984 44.6140 315.5659 15.26256997119857
UTC large
Height (km)
Speed (km/s)
/
Latitude / Longitude
Inclination (degrees)
Orbital Period (minutes)
Azimuth
Elevation
Range (km)
Doppler Factor

Next 0 passes for location: London (51.5072 / 0.1276)

Sorry there are no passes over London.